ZSJRH FAPE-FAGG

Flight info

Callsign ZSJRH
Flight time 0h 49m
Altitude 16000
Route OKRAV DCT GABGO GABGO1B
Aircraft PC12/L-SDFGRWY/S

Departure

Time 2026-04-22 15:16
Airport Chief Dawid Stuurman International Airport (FAPE)

Arrival

Time 2026-04-22 16:06
Airport George Airport (FAGG)
Time Latitude Longitude Altitude Speed Heading
2026-04-22 15:11 -33.98383 25.61324 231 ft 0 kts 329°
2026-04-22 15:14 -33.98376 25.61323 258 ft 7 kts 21°
2026-04-22 15:14 -33.98389 25.61429 231 ft 13 kts 83°
2026-04-22 15:14 -33.98365 25.61566 230 ft 21 kts 67°
2026-04-22 15:15 -33.98269 25.61736 231 ft 29 kts 59°
2026-04-22 15:15 -33.98258 25.61902 232 ft 16 kts 147°
2026-04-22 15:15 -33.98317 25.61946 232 ft 7 kts 149°
2026-04-22 15:15 -33.98387 25.61922 232 ft 19 kts 240°
2026-04-22 15:16 -33.98528 25.61651 230 ft 66 kts 238°
2026-04-22 15:16 -33.98851 25.61036 295 ft 99 kts 237°
2026-04-22 15:16 -33.99220 25.60332 635 ft 109 kts 237°
2026-04-22 15:16 -33.99624 25.59554 1281 ft 103 kts 235°
2026-04-22 15:17 -33.99999 25.58732 1602 ft 135 kts 244°
2026-04-22 15:17 -33.99977 25.57533 2155 ft 147 kts 286°
2026-04-22 15:17 -33.99582 25.56451 2999 ft 135 kts 285°
2026-04-22 15:17 -33.99326 25.55404 3760 ft 126 kts 276°
2026-04-22 15:18 -33.99188 25.54395 4461 ft 119 kts 271°
2026-04-22 15:18 -33.99114 25.53432 5153 ft 113 kts 267°
2026-04-22 15:18 -33.99079 25.52491 5753 ft 112 kts 265°
2026-04-22 15:18 -33.99068 25.51868 6137 ft 112 kts 265°
2026-04-22 15:19 -33.99060 25.50623 6910 ft 111 kts 265°
2026-04-22 15:19 -33.99063 25.49683 7456 ft 113 kts 263°
2026-04-22 15:19 -33.99069 25.48718 8007 ft 117 kts 263°
2026-04-22 15:19 -33.99074 25.47733 8569 ft 119 kts 262°
2026-04-22 15:20 -33.99078 25.47058 8952 ft 119 kts 261°
2026-04-22 15:20 -33.99082 25.46064 9528 ft 121 kts 261°
2026-04-22 15:20 -33.99086 25.44682 10274 ft 125 kts 261°
2026-04-22 15:20 -33.99088 25.43985 10622 ft 126 kts 261°
2026-04-22 15:21 -33.99099 25.42570 11329 ft 126 kts 262°
2026-04-22 15:21 -33.99107 25.41868 11691 ft 126 kts 261°
2026-04-22 15:21 -33.99121 25.40455 12424 ft 126 kts 262°
2026-04-22 15:21 -33.99125 25.39759 12796 ft 126 kts 262°
2026-04-22 15:22 -33.99129 25.38352 13564 ft 126 kts 263°
2026-04-22 15:22 -33.99131 25.37654 13949 ft 126 kts 263°
2026-04-22 15:22 -33.99132 25.36248 14665 ft 125 kts 264°
2026-04-22 15:22 -33.99132 25.35557 15006 ft 124 kts 264°
2026-04-22 15:23 -33.99131 25.34186 15679 ft 123 kts 263°
2026-04-22 15:23 -33.99131 25.33488 16021 ft 123 kts 263°
2026-04-22 15:23 -33.99143 25.32029 16360 ft 150 kts 263°
2026-04-22 15:23 -33.99160 25.31138 16394 ft 170 kts 264°
2026-04-22 15:24 -33.99187 25.29027 16440 ft 205 kts 265°
2026-04-22 15:24 -33.99195 25.27850 16441 ft 218 kts 265°
2026-04-22 15:24 -33.99197 25.25292 16431 ft 237 kts 266°
2026-04-22 15:24 -33.99193 25.23956 16419 ft 244 kts 266°
2026-04-22 15:25 -33.99184 25.21169 16396 ft 252 kts 266°
2026-04-22 15:25 -33.99180 25.19759 16387 ft 255 kts 266°
2026-04-22 15:25 -33.99177 25.16879 16376 ft 259 kts 266°
2026-04-22 15:25 -33.99178 25.15439 16371 ft 260 kts 266°
2026-04-22 15:26 -33.99183 25.12547 16362 ft 261 kts 266°
2026-04-22 15:26 -33.99185 25.11066 16361 ft 261 kts 266°
2026-04-22 15:26 -33.99189 25.08159 16360 ft 262 kts 266°
2026-04-22 15:26 -33.99191 25.06704 16358 ft 262 kts 266°
2026-04-22 15:27 -33.99195 25.03768 16354 ft 262 kts 266°
2026-04-22 15:27 -33.99197 25.02287 16354 ft 262 kts 266°
2026-04-22 15:27 -33.99198 24.99372 16356 ft 263 kts 266°
2026-04-22 15:27 -33.99199 24.97912 16357 ft 263 kts 266°
2026-04-22 15:28 -33.99201 24.94960 16359 ft 263 kts 266°
2026-04-22 15:28 -33.99201 24.93502 16362 ft 263 kts 266°
2026-04-22 15:28 -33.99203 24.90549 16363 ft 264 kts 266°
2026-04-22 15:28 -33.99203 24.89084 16360 ft 264 kts 266°
2026-04-22 15:29 -33.99203 24.86119 16354 ft 264 kts 266°
2026-04-22 15:29 -33.99202 24.84659 16357 ft 264 kts 266°
2026-04-22 15:29 -33.99200 24.81705 16359 ft 264 kts 266°
2026-04-22 15:30 -33.99196 24.78024 16363 ft 264 kts 266°
2026-04-22 15:30 -33.99192 24.75096 16367 ft 264 kts 266°
2026-04-22 15:30 -33.99190 24.72883 16373 ft 264 kts 266°
2026-04-22 15:30 -33.99188 24.71385 16373 ft 264 kts 266°
2026-04-22 15:31 -33.99184 24.68445 16382 ft 265 kts 266°
2026-04-22 15:31 -33.99181 24.66973 16380 ft 265 kts 266°
2026-04-22 15:31 -33.99175 24.64002 16380 ft 265 kts 266°
2026-04-22 15:31 -33.99170 24.62529 16380 ft 265 kts 267°
2026-04-22 15:32 -33.98955 24.59562 16372 ft 267 kts 276°
2026-04-22 15:32 -33.98644 24.58124 16367 ft 269 kts 283°
2026-04-22 15:32 -33.97853 24.55258 16367 ft 269 kts 284°
2026-04-22 15:32 -33.97477 24.53829 16367 ft 269 kts 283°
2026-04-22 15:33 -33.96768 24.50941 16373 ft 269 kts 282°
2026-04-22 15:33 -33.96432 24.49499 16374 ft 269 kts 281°
2026-04-22 15:33 -33.95778 24.46622 16362 ft 269 kts 281°
2026-04-22 15:33 -33.95445 24.45153 16359 ft 269 kts 281°
2026-04-22 15:34 -33.94785 24.42281 16359 ft 269 kts 281°
2026-04-22 15:34 -33.94449 24.40845 16366 ft 269 kts 282°
2026-04-22 15:34 -33.93760 24.37945 16371 ft 269 kts 282°
2026-04-22 15:34 -33.93436 24.36595 16377 ft 270 kts 282°
2026-04-22 15:35 -33.92978 24.34697 16381 ft 271 kts 282°
2026-04-22 15:35 -33.92455 24.32540 16387 ft 272 kts 282°
2026-04-22 15:35 -33.91740 24.29604 16389 ft 273 kts 282°
2026-04-22 15:35 -33.91384 24.28148 16389 ft 273 kts 282°
2026-04-22 15:36 -33.90666 24.25209 16394 ft 274 kts 282°
2026-04-22 15:36 -33.90309 24.23750 16393 ft 274 kts 282°
2026-04-22 15:36 -33.89589 24.20806 16390 ft 274 kts 282°
2026-04-22 15:36 -33.89231 24.19346 16397 ft 274 kts 282°
2026-04-22 15:37 -33.88693 24.17142 16402 ft 275 kts 282°
2026-04-22 15:37 -33.88152 24.14929 16400 ft 275 kts 282°
2026-04-22 15:37 -33.87434 24.12002 16399 ft 275 kts 282°
2026-04-22 15:37 -33.87068 24.10509 16398 ft 275 kts 282°
2026-04-22 15:38 -33.86526 24.08296 16397 ft 275 kts 282°
2026-04-22 15:38 -33.85447 24.03898 16389 ft 276 kts 282°
2026-04-22 15:38 -33.84902 24.01680 16386 ft 277 kts 282°
2026-04-22 15:39 -33.84354 23.99450 16383 ft 277 kts 282°
2026-04-22 15:39 -33.83805 23.97224 16378 ft 277 kts 282°
2026-04-22 15:39 -33.83258 23.95004 16372 ft 277 kts 283°
2026-04-22 15:39 -33.82711 23.92787 16361 ft 276 kts 282°
2026-04-22 15:40 -33.82160 23.90567 16361 ft 275 kts 282°
2026-04-22 15:40 -33.81621 23.88391 16363 ft 275 kts 282°
2026-04-22 15:40 -33.81076 23.86189 16361 ft 275 kts 282°
2026-04-22 15:40 -33.80529 23.83978 16366 ft 275 kts 283°
2026-04-22 15:41 -33.79985 23.81777 16376 ft 275 kts 283°
2026-04-22 15:41 -33.79439 23.79573 16382 ft 275 kts 283°
2026-04-22 15:41 -33.78892 23.77367 16386 ft 276 kts 283°
2026-04-22 15:41 -33.78341 23.75155 16381 ft 276 kts 283°
2026-04-22 15:42 -33.77792 23.72946 16374 ft 276 kts 283°
2026-04-22 15:42 -33.77243 23.70730 16377 ft 276 kts 283°
2026-04-22 15:42 -33.76693 23.68517 16383 ft 277 kts 283°
2026-04-22 15:42 -33.76140 23.66302 16374 ft 277 kts 283°
2026-04-22 15:43 -33.75588 23.64086 16374 ft 277 kts 283°
2026-04-22 15:43 -33.75034 23.61871 16378 ft 277 kts 283°
2026-04-22 15:43 -33.74479 23.59655 16372 ft 277 kts 283°
2026-04-22 15:43 -33.73923 23.57435 16373 ft 277 kts 283°
2026-04-22 15:44 -33.73375 23.55250 16354 ft 276 kts 283°
2026-04-22 15:44 -33.72819 23.53037 16340 ft 276 kts 283°
2026-04-22 15:44 -33.72265 23.50836 16336 ft 275 kts 283°
2026-04-22 15:44 -33.71708 23.48640 16349 ft 275 kts 283°
2026-04-22 15:45 -33.71151 23.46446 16359 ft 275 kts 283°
2026-04-22 15:45 -33.70598 23.44248 16370 ft 275 kts 283°
2026-04-22 15:45 -33.70044 23.42046 16370 ft 276 kts 283°
2026-04-22 15:45 -33.69492 23.39840 16365 ft 276 kts 283°
2026-04-22 15:46 -33.68939 23.37634 16363 ft 276 kts 283°
2026-04-22 15:46 -33.68386 23.35428 16363 ft 276 kts 283°
2026-04-22 15:46 -33.67829 23.33219 16360 ft 276 kts 283°
2026-04-22 15:46 -33.67272 23.31016 16364 ft 276 kts 283°
2026-04-22 15:47 -33.66855 23.28787 16362 ft 271 kts 271°
2026-04-22 15:47 -33.67087 23.26588 16366 ft 265 kts 252°
2026-04-22 15:47 -33.67538 23.24464 16377 ft 266 kts 255°
2026-04-22 15:47 -33.67855 23.22264 16380 ft 268 kts 259°
2026-04-22 15:48 -33.68087 23.20037 16385 ft 269 kts 261°
2026-04-22 15:48 -33.68294 23.17793 16384 ft 270 kts 261°
2026-04-22 15:48 -33.68504 23.15551 16386 ft 270 kts 261°
2026-04-22 15:48 -33.68729 23.13304 16379 ft 270 kts 260°
2026-04-22 15:49 -33.68971 23.11065 16356 ft 271 kts 259°
2026-04-22 15:49 -33.69231 23.08798 16106 ft 276 kts 259°
2026-04-22 15:49 -33.69504 23.06521 15854 ft 276 kts 259°
2026-04-22 15:49 -33.69782 23.04241 15608 ft 276 kts 259°
2026-04-22 15:50 -33.70061 23.01971 15364 ft 277 kts 259°
2026-04-22 15:50 -33.70343 22.99673 15122 ft 277 kts 259°
2026-04-22 15:50 -33.70622 22.97386 14878 ft 278 kts 259°
2026-04-22 15:50 -33.70898 22.95112 14639 ft 278 kts 259°
2026-04-22 15:51 -33.71178 22.92793 14393 ft 275 kts 259°
2026-04-22 15:51 -33.71447 22.90554 14151 ft 273 kts 259°
2026-04-22 15:51 -33.71719 22.88297 13881 ft 273 kts 259°
2026-04-22 15:51 -33.72058 22.86057 13604 ft 271 kts 255°
2026-04-22 15:52 -33.72535 22.83870 13345 ft 270 kts 252°
2026-04-22 15:52 -33.73061 22.81705 13070 ft 268 kts 251°
2026-04-22 15:52 -33.73591 22.79567 12810 ft 266 kts 251°
2026-04-22 15:52 -33.74120 22.77439 12547 ft 265 kts 250°
2026-04-22 15:53 -33.74641 22.75315 12283 ft 265 kts 251°
2026-04-22 15:53 -33.75159 22.73192 12026 ft 265 kts 251°
2026-04-22 15:53 -33.75673 22.71067 11775 ft 265 kts 251°
2026-04-22 15:53 -33.76185 22.68939 11526 ft 264 kts 251°
2026-04-22 15:54 -33.76687 22.66844 11282 ft 264 kts 251°
2026-04-22 15:54 -33.77194 22.64723 11036 ft 264 kts 251°
2026-04-22 15:54 -33.77702 22.62600 10780 ft 264 kts 251°
2026-04-22 15:54 -33.78209 22.60482 10534 ft 264 kts 250°
2026-04-22 15:55 -33.78717 22.58362 10289 ft 263 kts 251°
2026-04-22 15:55 -33.79226 22.56244 10055 ft 264 kts 251°
2026-04-22 15:55 -33.79733 22.54126 9801 ft 263 kts 251°
2026-04-22 15:55 -33.80233 22.52033 9564 ft 263 kts 251°
2026-04-22 15:56 -33.80738 22.49920 9318 ft 263 kts 251°
2026-04-22 15:56 -33.81241 22.47811 9069 ft 262 kts 251°
2026-04-22 15:56 -33.81744 22.45707 8829 ft 262 kts 251°
2026-04-22 15:56 -33.82248 22.43599 8581 ft 262 kts 251°
2026-04-22 15:57 -33.82749 22.41496 8412 ft 262 kts 251°
2026-04-22 15:57 -33.83251 22.39366 8285 ft 266 kts 252°
2026-04-22 15:57 -33.83760 22.37204 8157 ft 271 kts 252°
2026-04-22 15:57 -33.84278 22.35007 8037 ft 274 kts 252°
2026-04-22 15:58 -33.84801 22.32798 7922 ft 275 kts 252°
2026-04-22 15:58 -33.85325 22.30587 7812 ft 274 kts 252°
2026-04-22 15:58 -33.85850 22.28376 7692 ft 274 kts 252°
2026-04-22 15:58 -33.86372 22.26164 7582 ft 275 kts 252°
2026-04-22 15:59 -33.86885 22.23979 7463 ft 275 kts 252°
2026-04-22 15:59 -33.87406 22.21754 7345 ft 275 kts 252°
2026-04-22 15:59 -33.87928 22.19544 7220 ft 275 kts 252°
2026-04-22 15:59 -33.88512 22.17375 7097 ft 263 kts 245°
2026-04-22 16:00 -33.89178 22.16176 6997 ft 252 kts 224°
2026-04-22 16:00 -33.91168 22.15063 6745 ft 237 kts 181°
2026-04-22 16:00 -33.92729 22.15466 6540 ft 228 kts 152°
2026-04-22 16:00 -33.93950 22.16572 5987 ft 209 kts 133°
2026-04-22 16:01 -33.94884 22.17824 5420 ft 193 kts 131°
2026-04-22 16:01 -33.95738 22.18981 4879 ft 182 kts 131°
2026-04-22 16:01 -33.96568 22.20078 4358 ft 172 kts 131°
2026-04-22 16:01 -33.97361 22.21110 3877 ft 164 kts 132°
2026-04-22 16:02 -33.98186 22.22181 3383 ft 184 kts 131°
2026-04-22 16:02 -33.99085 22.23351 2875 ft 195 kts 131°
2026-04-22 16:02 -33.99954 22.24512 2650 ft 178 kts 128°
2026-04-22 16:02 -34.00601 22.25740 2453 ft 175 kts 113°
2026-04-22 16:03 -34.00823 22.27125 2234 ft 145 kts 91°
2026-04-22 16:03 -34.00776 22.28153 2080 ft 112 kts 89°
2026-04-22 16:03 -34.00775 22.29073 1922 ft 106 kts 94°
2026-04-22 16:03 -34.00809 22.29946 1774 ft 103 kts 94°
2026-04-22 16:04 -34.00815 22.30807 1617 ft 102 kts 90°
2026-04-22 16:04 -34.00780 22.31639 1474 ft 100 kts 88°
2026-04-22 16:04 -34.00726 22.32486 1340 ft 103 kts 88°
2026-04-22 16:04 -34.00681 22.33352 1207 ft 104 kts 89°
2026-04-22 16:05 -34.00660 22.33931 1114 ft 104 kts 90°
2026-04-22 16:05 -34.00632 22.35112 924 ft 106 kts 91°
2026-04-22 16:05 -34.00620 22.36009 783 ft 109 kts 88°
2026-04-22 16:05 -34.00581 22.36900 663 ft 99 kts 86°
2026-04-22 16:06 -34.00570 22.37561 655 ft 53 kts 87°
2026-04-22 16:06 -34.00535 22.37884 653 ft 15 kts 18°
2026-04-22 16:06 -34.00381 22.37887 654 ft 18 kts 19°
2026-04-22 16:06 -34.00335 22.38042 652 ft 26 kts 87°
2026-04-22 16:07 -34.00243 22.38152 652 ft 4 kts 39°
2026-04-22 16:07 -34.00234 22.38161 652 ft 3 kts 38°
2026-04-22 16:07 -34.00230 22.38165 652 ft 0 kts 44°